TimeEDT,TemperatureF,Dew PointF,Humidity,Sea Level PressureIn,VisibilityMPH,Wind Direction,Wind SpeedMPH,Gust SpeedMPH,PrecipitationIn,Events,Conditions,WindDirDegrees,DateUTC
12:13 AM,46.2,44.4,93,30.10,10.0,Calm,Calm,-,N/A,,Clear,0,2013-10-03 04:13:00
12:33 AM,44.6,43.2,95,30.10,10.0,Calm,Calm,-,N/A,,Clear,0,2013-10-03 04:33:00
12:54 AM,46.0,45.0,96,30.08,10.0,Calm,Calm,-,N/A,,Clear,0,2013-10-03 04:54:00
1:13 AM,45.5,44.1,95,30.08,10.0,Calm,Calm,-,N/A,,Clear,0,2013-10-03 05:13:00
1:33 AM,45.5,43.9,94,30.08,10.0,Calm,Calm,-,N/A,,Clear,0,2013-10-03 05:33:00
1:54 AM,44.6,43.7,97,30.08,10.0,Calm,Calm,-,N/A,,Clear,0,2013-10-03 05:54:00
2:13 AM,45.1,44.1,96,30.08,10.0,Calm,Calm,-,N/A,,Clear,0,2013-10-03 06:13:00
2:33 AM,45.1,44.2,97,30.08,10.0,Calm,Calm,-,N/A,,Clear,0,2013-10-03 06:33:00
2:54 AM,45.0,43.9,96,30.08,10.0,Calm,Calm,-,N/A,,Clear,0,2013-10-03 06:54:00
3:13 AM,44.8,43.5,95,30.07,10.0,Calm,Calm,-,N/A,,Clear,0,2013-10-03 07:13:00
3:33 AM,45.1,44.4,97,30.06,10.0,Calm,Calm,-,N/A,,Clear,0,2013-10-03 07:33:00
3:53 AM,44.6,43.5,96,30.07,10.0,Calm,Calm,-,N/A,,Clear,0,2013-10-03 07:53:00
4:13 AM,50.0,45.9,86,30.06,10.0,Calm,Calm,-,N/A,,Clear,0,2013-10-03 08:13:00
4:33 AM,50.2,45.5,84,30.06,10.0,Calm,Calm,-,N/A,,Clear,0,2013-10-03 08:33:00
4:53 AM,49.3,45.3,86,30.05,10.0,Calm,Calm,-,N/A,,Clear,0,2013-10-03 08:53:00
5:13 AM,53.8,45.9,75,30.06,10.0,SE,3.5,-,N/A,,Clear,130,2013-10-03 09:13:00
5:33 AM,54.1,45.5,73,30.06,10.0,Calm,Calm,-,N/A,,Scattered Clouds,0,2013-10-03 09:33:00
5:53 AM,54.5,45.7,72,30.06,10.0,Calm,Calm,-,N/A,,Mostly Cloudy,0,2013-10-03 09:53:00
6:13 AM,54.5,45.7,72,30.05,10.0,ESE,3.5,-,N/A,,Mostly Cloudy,120,2013-10-03 10:13:00
6:33 AM,54.9,45.9,72,30.06,10.0,SE,3.5,-,N/A,,Overcast,130,2013-10-03 10:33:00
6:53 AM,56.7,46.4,69,30.06,10.0,ESE,4.6,-,N/A,,Overcast,120,2013-10-03 10:53:00
7:13 AM,57.4,46.8,68,30.06,10.0,Calm,Calm,-,N/A,,Overcast,0,2013-10-03 11:13:00
7:33 AM,56.7,46.2,68,30.06,10.0,East,4.6,-,N/A,,Overcast,100,2013-10-03 11:33:00
7:53 AM,55.9,46.4,70,30.07,10.0,Calm,Calm,-,N/A,,Mostly Cloudy,0,2013-10-03 11:53:00
8:13 AM,55.9,46.9,72,30.06,10.0,ESE,3.5,-,N/A,,Overcast,110,2013-10-03 12:13:00
8:34 AM,55.9,47.8,74,30.06,10.0,ESE,3.5,-,N/A,,Mostly Cloudy,110,2013-10-03 12:34:00
8:53 AM,57.2,48.9,74,30.05,10.0,ESE,4.6,-,N/A,,Mostly Cloudy,120,2013-10-03 12:53:00
9:13 AM,59.2,50.5,73,30.05,10.0,SE,5.8,-,N/A,,Scattered Clouds,130,2013-10-03 13:13:00
9:34 AM,61.5,51.6,70,30.05,10.0,SE,6.9,-,N/A,,Clear,130,2013-10-03 13:34:00
9:53 AM,64.0,52.9,67,30.05,10.0,SE,9.2,-,N/A,,Clear,140,2013-10-03 13:53:00
10:13 AM,64.4,52.7,66,30.05,10.0,SSE,4.6,-,N/A,,Clear,150,2013-10-03 14:13:00
10:33 AM,65.7,53.2,64,30.04,10.0,SSE,5.8,-,N/A,,Mostly Cloudy,150,2013-10-03 14:33:00
10:53 AM,69.8,54.0,57,30.04,10.0,SSE,6.9,-,N/A,,Scattered Clouds,160,2013-10-03 14:53:00
11:14 AM,70.5,55.0,58,30.03,10.0,South,10.4,-,N/A,,Clear,170,2013-10-03 15:14:00
11:33 AM,71.6,56.7,59,30.02,10.0,South,8.1,-,N/A,,Clear,180,2013-10-03 15:33:00
11:53 AM,73.0,58.3,60,30.02,10.0,South,5.8,-,N/A,,Clear,180,2013-10-03 15:53:00
12:14 PM,74.1,59.0,59,30.00,10.0,SSE,4.6,-,N/A,,Clear,150,2013-10-03 16:14:00
12:33 PM,75.2,59.9,59,30.00,10.0,SSE,6.9,-,N/A,,Clear,150,2013-10-03 16:33:00
12:53 PM,77.5,61.0,57,30.00,10.0,South,8.1,-,N/A,,Clear,180,2013-10-03 16:53:00
1:14 PM,77.0,61.5,59,29.99,10.0,South,11.5,-,N/A,,Scattered Clouds,170,2013-10-03 17:14:00
1:33 PM,79.2,61.5,55,29.98,10.0,SSW,10.4,-,N/A,,Scattered Clouds,210,2013-10-03 17:33:00
1:53 PM,78.8,62.2,57,29.98,10.0,South,10.4,-,N/A,,Mostly Cloudy,180,2013-10-03 17:53:00
2:14 PM,77.2,62.2,60,29.98,10.0,SW,8.1,17.3,N/A,,Mostly Cloudy,220,2013-10-03 18:14:00
2:33 PM,80.6,62.8,54,29.97,10.0,SW,10.4,16.1,N/A,,Overcast,220,2013-10-03 18:33:00
2:53 PM,79.2,62.6,57,29.96,10.0,South,8.1,-,N/A,,Mostly Cloudy,180,2013-10-03 18:53:00
3:14 PM,79.7,62.2,55,29.96,10.0,WSW,9.2,-,N/A,,Mostly Cloudy,240,2013-10-03 19:14:00
3:33 PM,78.8,63.3,59,29.95,10.0,South,10.4,-,N/A,,Mostly Cloudy,190,2013-10-03 19:33:00
3:53 PM,79.3,63.0,57,29.95,10.0,SW,9.2,-,N/A,,Mostly Cloudy,230,2013-10-03 19:53:00
4:14 PM,79.2,63.9,59,29.94,10.0,SSW,10.4,-,N/A,,Overcast,210,2013-10-03 20:14:00
4:33 PM,79.3,63.7,59,29.93,10.0,South,9.2,-,N/A,,Scattered Clouds,190,2013-10-03 20:33:00
4:53 PM,78.6,63.9,60,29.93,10.0,SSW,8.1,-,N/A,,Scattered Clouds,210,2013-10-03 20:53:00
5:14 PM,77.9,63.9,62,29.92,10.0,SSW,8.1,-,N/A,,Scattered Clouds,200,2013-10-03 21:14:00
5:33 PM,77.0,64.0,64,29.93,10.0,SSW,8.1,-,N/A,,Clear,200,2013-10-03 21:33:00
5:53 PM,76.5,64.6,67,29.93,10.0,South,5.8,-,N/A,,Mostly Cloudy,180,2013-10-03 21:53:00
6:13 PM,75.6,64.8,69,29.93,10.0,South,6.9,-,N/A,,Overcast,180,2013-10-03 22:13:00
6:33 PM,74.7,65.3,73,29.94,10.0,South,8.1,-,N/A,,Mostly Cloudy,190,2013-10-03 22:33:00
6:53 PM,73.8,65.3,75,29.95,10.0,South,6.9,-,N/A,,Mostly Cloudy,190,2013-10-03 22:53:00
7:13 PM,73.4,65.3,76,29.94,10.0,South,5.8,-,N/A,,Mostly Cloudy,190,2013-10-03 23:13:00
7:33 PM,72.5,64.8,77,29.95,10.0,SSW,8.1,-,N/A,,Scattered Clouds,210,2013-10-03 23:33:00
7:53 PM,72.5,64.4,76,29.95,10.0,SSW,5.8,-,N/A,,Scattered Clouds,210,2013-10-03 23:53:00
8:13 PM,71.8,64.4,77,29.95,10.0,SSW,4.6,-,N/A,,Scattered Clouds,210,2013-10-04 00:13:00
8:33 PM,70.9,64.0,79,29.96,10.0,SSW,4.6,-,N/A,,Scattered Clouds,210,2013-10-04 00:33:00
8:54 PM,69.3,63.9,83,29.96,10.0,SSW,4.6,-,N/A,,Scattered Clouds,210,2013-10-04 00:54:00
9:13 PM,69.8,64.0,82,29.97,10.0,SW,5.8,-,N/A,,Mostly Cloudy,220,2013-10-04 01:13:00
9:33 PM,70.3,63.7,79,29.97,10.0,SW,5.8,-,N/A,,Mostly Cloudy,220,2013-10-04 01:33:00
9:54 PM,69.4,63.5,81,29.97,10.0,SW,5.8,-,N/A,,Mostly Cloudy,220,2013-10-04 01:54:00
10:13 PM,68.0,63.1,84,29.97,10.0,SW,4.6,-,N/A,,Scattered Clouds,220,2013-10-04 02:13:00
10:33 PM,67.6,63.5,87,29.98,10.0,SSW,4.6,-,N/A,,Overcast,210,2013-10-04 02:33:00
10:54 PM,68.0,63.7,86,29.98,10.0,SSW,3.5,-,N/A,,Overcast,200,2013-10-04 02:54:00
11:13 PM,68.0,63.5,85,29.98,10.0,Calm,Calm,-,N/A,,Overcast,0,2013-10-04 03:13:00
11:33 PM,67.3,63.5,88,29.98,10.0,South,3.5,-,N/A,,Overcast,190,2013-10-04 03:33:00